ECMWFNIL_925_spd_102.txt.gz
Wind_Speed
15 16 16 17 17 18 19 20 22 23 23 22 21 21 20 21 22 22 24 27 25 24 23 20 19 20 20 21 21 21 22 23 23 23 23 24 24 23 23 23 21 20
16 17 17 17 18 19 19 21 23 23 22 22 22 21 20 23 24 22 23 25 22 21 22 20 20 20 20 20 20 20 21 21 22 22 22 23 24 22 21 21 21 20
16 18 18 18 20 21 21 22 22 21 22 23 23 22 21 23 25 23 22 23 20 18 20 21 21 20 19 18 18 19 20 20 21 21 20 19 20 21 19 18 20 21
16 18 18 19 20 21 21 21 21 21 22 24 24 24 23 23 23 21 20 21 22 19 20 20 19 19 18 15 15 17 19 19 20 21 19 17 17 18 19 19 20 22
16 16 17 19 19 20 21 20 19 19 21 23 24 24 24 22 21 19 17 19 22 22 20 18 16 16 15 13 13 15 17 17 17 17 17 16 15 16 17 18 19 20
16 16 17 18 19 20 21 20 19 18 20 22 23 22 21 21 20 18 15 16 20 22 22 20 16 13 12 13 12 13 15 15 12 12 13 14 15 16 16 16 18 18
17 17 17 18 19 20 19 19 19 19 20 22 22 21 20 20 19 16 15 15 17 20 20 17 14 12 12 13 13 12 13 12 10 11 12 12 14 15 14 15 17 19
17 17 18 18 19 19 18 18 19 20 20 22 22 21 19 19 17 14 13 13 13 15 14 11 10 11 12 14 14 13 11 10 10 11 12 13 13 14 15 15 17 20
17 17 18 18 18 18 18 19 20 20 21 22 21 20 19 17 16 15 14 11 8 10 9 7 8 9 11 11 12 11 11 11 12 12 13 14 12 12 16 16 16 19
18 18 19 20 19 19 19 19 20 21 20 21 22 21 19 17 16 15 14 11 9 8 6 4 5 7 8 8 8 10 11 12 12 12 12 13 10 10 13 14 15 18
20 20 22 23 21 21 21 20 21 21 20 21 22 21 20 19 17 15 14 13 12 8 4 3 2 3 4 4 5 7 8 9 9 9 9 10 10 9 10 13 14 14
20 20 22 23 22 22 22 21 22 23 22 22 22 20 20 20 18 17 17 14 13 10 6 3 3 3 2 3 2 2 4 3 4 5 6 6 8 8 7 9 9 7
19 19 20 21 21 21 21 20 21 21 21 22 21 20 21 19 16 18 18 15 14 14 11 8 7 7 6 4 4 3 1 1 2 3 4 4 4 6 6 6 7 7
18 17 18 20 19 19 20 20 20 20 20 20 20 21 20 18 15 16 16 15 15 15 14 11 9 9 8 7 8 7 4 3 4 5 6 7 6 5 4 5 7 9
17 17 17 18 18 19 20 20 20 21 21 20 21 21 21 19 18 18 17 17 16 14 14 14 13 12 11 10 10 9 9 8 7 7 8 9 8 7 6 4 5 8
17 18 18 18 19 19 20 20 21 21 22 22 22 22 22 21 20 21 22 22 20 18 17 17 18 17 13 11 10 10 12 12 9 8 8 5 2 7 7 4 3 5
18 18 19 19 19 20 19 20 21 22 23 23 24 24 24 22 22 22 24 25 24 23 21 20 20 18 15 13 11 11 13 14 13 11 11 10 4 5 5 0 1 3
18 19 19 19 19 19 19 20 22 22 23 23 24 24 25 25 25 25 25 26 26 26 25 24 22 20 18 15 14 13 13 16 18 17 17 17 11 1 2 2 3 1
18 19 19 19 20 19 19 21 22 23 23 23 23 23 25 26 27 28 28 28 28 29 28 26 24 23 20 18 18 16 15 17 18 18 18 19 18 13 7 5 5 6
19 19 19 19 19 19 20 21 22 23 23 24 24 25 26 27 27 29 29 29 30 31 30 28 26 24 23 21 21 19 16 17 17 17 19 20 21 20 17 15 14 14
20 19 20 20 19 19 20 21 23 24 23 25 28 28 27 26 27 30 31 31 31 32 31 29 27 25 23 22 21 19 18 18 18 18 21 23 23 23 23 22 20 18
21 20 20 20 20 20 21 21 22 23 23 24 26 28 28 28 29 32 34 34 34 33 33 32 29 26 24 21 19 18 17 17 17 17 19 22 23 24 23 23 22 20
21 21 21 20 20 21 22 22 22 22 21 22 23 25 27 27 28 33 36 37 36 36 36 35 32 28 24 21 19 18 17 17 17 18 20 22 24 23 22 23 23 22
20 20 20 21 21 21 21 22 23 23 22 22 23 24 25 24 26 30 34 36 37 36 35 35 34 30 25 22 20 19 20 21 20 21 23 24 24 23 21 21 22 22
20 20 21 21 22 23 22 21 21 21 21 21 22 23 24 25 26 28 30 33 35 36 36 35 35 32 27 24 22 20 20 22 22 22 23 23 24 24 22 20 20 21
20 21 22 22 22 23 24 24 24 23 22 22 22 22 22 25 27 28 30 31 32 34 36 36 36 34 31 27 25 22 20 20 21 22 22 22 22 23 24 23 21 21

ECMWFNIL_925_spd_108.txt.gz
Wind_Speed
8 8 9 9 9 9 9 9 10 11 12 13 15 17 18 19 19 19 20 20 20 19 18 19 20 21 21 20 21 22 23 24 25 26 27 28 30 32 31 29 30 33
8 8 9 9 9 10 10 9 9 10 11 13 15 16 17 18 18 19 19 19 20 18 16 16 17 18 18 18 19 20 21 23 23 23 24 27 28 30 32 30 28 29
9 9 10 11 10 10 11 10 10 11 12 14 15 16 17 17 18 19 19 19 19 18 17 15 15 16 16 17 18 19 20 21 22 22 22 26 28 29 31 31 29 27
12 12 12 12 12 11 11 11 13 14 15 16 16 16 17 17 18 19 19 18 18 18 17 16 15 15 15 16 17 18 18 18 18 19 20 22 24 27 30 30 29 27
14 15 14 14 14 14 13 14 16 16 17 17 17 18 19 19 19 19 19 19 18 18 17 16 16 14 12 13 14 14 14 13 12 13 15 17 18 22 27 28 27 26
15 14 14 14 14 13 14 15 16 17 18 19 19 19 20 20 20 20 19 19 19 18 18 16 15 14 12 11 12 11 9 8 8 8 9 12 16 17 20 21 22 22
15 14 13 13 13 13 14 14 14 16 17 18 19 20 21 20 21 20 19 19 19 19 18 17 16 15 13 12 11 10 9 7 7 7 8 8 8 8 13 14 15 16
16 15 15 14 13 13 14 14 15 15 15 17 19 19 19 20 21 21 20 20 20 19 18 17 16 15 14 12 10 10 10 9 7 6 7 6 4 2 5 7 8 8
17 16 16 16 15 15 15 15 15 14 15 18 20 19 18 19 21 21 21 21 21 21 19 18 16 15 14 14 13 12 11 10 8 7 7 6 4 3 1 0 1 4
18 18 17 17 17 17 17 16 15 14 16 20 21 21 20 20 20 21 21 21 22 21 20 19 18 16 15 16 15 14 13 12 11 9 7 5 5 4 3 3 3 2
19 19 18 18 18 18 19 19 18 17 19 20 22 23 23 23 23 22 22 23 23 22 20 19 19 18 16 15 15 15 14 13 13 12 10 5 3 4 4 3 3 2
20 18 18 18 18 18 19 21 21 20 21 22 23 25 26 27 27 26 25 25 25 24 21 20 20 20 18 16 15 15 14 13 11 11 11 8 5 4 5 4 3 2
19 18 18 18 18 19 20 21 23 23 23 24 25 25 26 28 29 29 28 28 27 26 24 23 21 21 20 19 17 16 15 14 13 11 11 11 9 7 5 5 4 4
18 18 19 19 19 20 22 23 24 25 25 25 25 26 27 28 29 30 30 29 29 28 26 24 22 22 21 20 18 17 16 16 16 14 13 14 13 12 10 8 6 6
19 20 20 21 21 22 23 24 24 25 25 26 26 27 28 28 29 30 30 30 29 28 27 25 25 25 23 19 17 17 16 16 17 16 16 17 17 17 15 13 11 11
22 23 23 24 24 23 23 24 24 25 25 26 27 27 28 29 30 31 32 31 30 29 28 27 27 26 23 20 18 18 18 18 18 17 17 18 19 19 18 16 14 14
23 24 25 25 24 24 24 24 25 26 27 28 28 29 29 30 31 32 32 32 31 30 28 27 27 26 24 23 22 22 23 23 22 21 20 20 20 20 20 18 16 15
23 24 24 24 23 24 24 24 25 27 28 29 29 30 30 32 33 33 33 33 32 30 29 27 26 25 24 24 25 26 27 27 27 26 26 25 25 24 22 20 18 16
23 24 24 24 23 24 24 26 28 28 28 29 29 30 31 33 34 34 34 34 33 32 30 28 27 26 25 24 25 27 28 29 29 29 30 29 29 29 26 23 21 19
23 23 23 23 23 25 27 28 30 29 29 29 30 32 34 35 34 35 35 35 34 33 32 30 28 27 25 25 26 26 28 30 31 32 33 33 33 33 30 27 25 22
23 24 24 23 23 25 27 28 29 29 29 30 32 34 34 34 35 36 36 36 36 35 34 32 29 27 26 27 27 27 29 31 33 34 35 36 36 36 35 32 29 26
25 25 25 25 25 26 27 27 27 28 28 30 32 33 34 34 35 36 36 36 37 37 37 34 31 28 27 27 27 28 30 32 34 35 36 37 37 38 39 38 34 30
27 27 27 27 28 29 29 28 27 27 27 28 31 32 32 33 34 34 35 36 37 38 38 36 33 30 28 27 27 28 30 32 34 35 37 38 38 38 39 40 38 35
25 26 26 26 27 28 28 28 28 28 27 28 30 30 30 31 31 33 34 36 37 37 36 36 35 32 30 29 29 28 29 31 32 34 36 36 36 37 37 38 39 37
22 23 23 23 23 23 24 25 26 27 28 29 30 31 31 31 32 34 35 35 36 35 35 36 35 33 32 31 31 30 31 31 32 34 35 34 34 35 35 35 36 36
23 24 24 25 25 24 24 24 24 26 28 29 30 31 32 32 33 34 34 34 34 34 35 35 34 33 33 32 32 32 32 32 33 33 31 31 33 34 34 34 33 33

ECMWFNIL_925_spd_111.txt.gz
Wind_Speed
1 1 2 3 4 4 5 6 8 10 12 14 15 17 18 19 20 20 20 21 21 21 21 21 20 19 18 19 20 20 20 20 21 22 23 25 26 26 27 28 28 28
2 3 4 4 4 5 6 8 10 12 13 15 16 18 19 20 20 20 19 20 20 21 21 20 19 19 18 18 18 17 18 19 21 22 22 23 24 25 27 27 28 29
6 6 7 7 7 7 8 10 12 13 14 15 16 18 19 20 20 20 19 19 20 21 21 20 19 19 19 17 16 16 17 19 21 21 20 21 23 24 26 27 28 28
9 9 9 9 9 8 8 10 13 14 13 14 16 18 18 20 21 20 19 19 20 21 21 19 18 18 18 16 15 16 16 16 16 17 17 18 18 20 22 24 25 26
10 9 8 7 7 7 8 10 12 12 12 13 15 17 18 20 21 20 20 20 20 19 19 18 18 17 16 16 15 15 14 13 13 13 14 14 14 16 16 16 19 22
9 8 7 6 7 8 9 10 11 10 11 13 14 15 18 20 20 19 18 18 19 18 18 18 17 15 15 15 15 15 13 12 11 12 12 13 13 15 14 11 13 16
9 9 8 7 7 8 9 10 10 10 11 13 13 15 18 19 18 17 16 16 17 17 18 17 16 14 14 14 14 15 14 13 13 12 11 12 13 14 14 12 10 10
11 10 9 9 8 9 9 9 9 11 12 13 14 16 17 17 16 16 16 16 16 17 18 18 16 14 13 14 14 15 16 16 15 14 13 13 13 13 13 13 11 9
12 11 11 11 11 11 10 9 11 13 13 14 16 16 15 15 16 16 18 18 19 19 18 18 17 15 14 15 15 15 16 16 17 17 15 14 13 14 13 13 11 10
12 12 13 14 15 15 13 13 14 15 15 15 16 16 15 16 17 18 20 21 21 21 21 20 19 17 16 15 16 16 16 15 16 17 16 15 14 14 15 14 12 12
13 13 14 15 16 16 15 16 16 16 16 16 16 17 17 17 19 21 23 23 23 23 22 21 20 18 17 16 17 19 19 18 17 17 17 16 15 14 15 15 14 14
14 15 14 15 16 16 16 16 17 17 17 17 18 18 18 19 21 23 24 24 24 23 23 22 21 19 18 18 18 20 21 21 21 21 20 19 18 17 16 16 16 16
15 15 16 16 17 18 18 17 17 17 17 18 19 20 21 22 23 24 24 24 24 24 24 24 23 21 19 19 20 20 21 21 21 21 22 22 21 20 19 18 17 17
16 16 16 17 17 18 18 17 17 17 18 18 19 21 23 24 25 25 24 25 26 25 25 25 25 24 22 20 20 21 21 21 21 20 21 21 21 21 21 22 21 21
17 17 17 17 17 18 18 18 18 18 19 19 21 22 23 24 26 26 26 27 27 27 27 27 27 27 25 21 21 22 22 22 23 23 22 22 22 23 23 24 26 25
18 17 17 17 18 19 19 19 20 20 21 22 23 24 24 25 26 27 28 29 29 29 29 29 29 29 26 23 23 25 26 27 27 27 27 26 25 25 25 25 27 27
18 17 18 18 19 20 21 22 22 23 24 25 26 26 27 27 28 29 30 30 30 31 31 30 30 29 28 26 27 28 30 32 33 32 32 32 31 29 28 27 27 28
19 19 20 20 21 22 23 23 24 25 26 27 28 28 29 29 30 31 31 31 30 31 31 30 29 29 27 27 28 29 31 33 35 36 36 35 34 33 32 30 30 29
18 20 21 22 22 23 24 25 26 27 28 28 28 29 30 31 31 31 31 31 31 31 31 30 29 28 27 28 29 29 31 34 36 38 39 38 37 38 36 35 34 32
18 20 20 21 22 23 25 26 28 28 28 28 29 30 31 32 32 32 32 31 31 31 31 30 28 27 26 27 29 30 31 34 36 37 39 40 40 40 40 39 37 36
19 20 20 20 22 24 26 27 27 27 27 28 29 31 31 32 32 32 32 32 32 32 32 31 28 26 26 27 28 29 31 33 34 36 38 39 40 41 41 41 39 38
20 21 21 21 22 24 25 26 26 26 26 28 30 31 31 32 32 33 33 33 33 33 34 33 31 28 27 28 29 30 32 33 34 36 37 38 38 39 40 40 39 39
22 23 23 22 22 24 24 24 25 26 26 28 30 32 32 32 33 33 33 34 34 35 35 35 34 31 30 30 30 32 33 34 35 36 37 37 37 37 38 39 39 38
22 23 23 23 24 24 25 25 26 27 28 29 31 32 31 31 32 33 34 34 34 34 35 35 35 33 32 32 31 32 33 34 35 36 36 36 35 36 38 38 38 37
20 21 22 23 24 24 25 26 27 28 28 30 31 31 31 30 31 32 33 33 33 32 33 34 34 33 33 33 32 33 33 34 34 35 35 34 34 35 36 37 37 37
19 20 21 22 23 24 26 27 27 28 29 29 29 30 30 30 30 31 31 31 31 31 31 32 32 32 32 32 33 33 33 34 35 35 33 32 33 34 35 36 36 36

ECMWFNIL_925_spd_114.txt.gz
Wind_Speed
7 6 6 6 7 7 8 10 12 12 13 13 14 16 17 18 19 19 19 18 17 17 18 18 18 18 18 18 18 18 17 17 17 17 17 18 18 18 18 20 21 22
5 5 6 7 7 7 9 10 11 11 11 11 12 15 17 18 18 17 17 17 17 17 17 18 18 18 18 17 17 18 17 16 16 15 15 14 15 14 15 17 20 21
5 5 5 5 5 6 8 8 10 11 10 10 12 14 16 17 16 15 15 16 17 18 18 18 18 18 18 17 17 19 19 16 15 15 15 14 14 14 15 15 16 18
4 4 5 6 6 6 6 8 10 10 9 10 12 13 15 16 15 14 15 15 17 17 18 18 17 17 18 17 18 20 21 19 17 15 15 15 15 16 17 17 16 16
5 5 5 6 6 6 6 8 9 8 8 10 12 13 14 14 14 14 15 16 16 16 17 17 16 17 18 18 18 19 20 21 21 18 16 15 16 16 18 19 19 18
5 4 4 4 4 3 6 6 6 6 8 11 12 13 13 12 13 13 14 15 16 16 17 17 17 17 19 20 20 20 20 21 23 22 19 18 18 18 19 19 19 19
2 3 3 3 2 4 4 4 4 7 9 11 12 11 12 13 13 14 14 15 17 18 19 19 19 19 20 21 22 21 21 21 23 23 22 22 21 20 22 21 19 19
3 2 2 2 2 3 3 4 7 9 9 10 10 10 12 14 15 16 16 17 19 20 21 20 20 19 19 21 22 22 22 22 22 23 23 23 22 22 23 23 21 20
4 3 4 4 5 6 7 9 10 10 10 10 10 10 11 14 16 18 18 19 21 22 22 21 20 19 19 21 22 22 22 22 21 22 23 23 23 23 23 23 22 22
7 7 8 9 10 10 11 11 11 11 11 11 12 12 12 14 18 19 19 22 23 25 25 23 21 20 20 22 22 21 20 20 20 21 21 22 22 23 24 24 23 24
9 10 10 11 12 12 12 12 11 11 13 14 14 15 15 17 20 21 23 25 26 28 28 26 24 22 22 22 21 20 19 18 19 20 21 23 23 23 24 24 24 25
12 12 12 13 13 13 12 12 12 13 15 16 16 17 19 20 22 24 26 27 28 29 29 29 28 26 25 25 24 23 23 23 23 24 25 26 26 25 24 24 24 25
14 13 14 14 14 14 13 13 14 15 16 17 18 19 20 21 24 26 27 28 29 29 30 30 30 29 29 29 29 28 29 30 30 30 30 31 30 29 26 25 24 25
15 14 14 14 14 14 14 15 16 16 17 18 19 20 21 22 25 26 26 28 29 29 29 29 30 31 30 30 30 30 31 32 32 32 32 33 34 33 31 30 29 27
14 15 15 15 15 15 16 17 18 18 19 20 21 22 22 23 25 26 27 28 28 29 29 29 30 31 30 29 30 31 32 33 33 33 34 33 33 34 35 35 35 33
15 16 16 16 17 18 19 20 20 21 22 23 23 24 24 25 26 27 28 28 29 29 29 29 30 29 28 28 29 30 31 32 33 36 36 35 35 34 34 35 37 36
16 17 18 19 20 21 21 22 22 23 24 25 25 26 26 26 27 28 29 29 29 29 29 29 29 27 27 28 29 30 31 31 34 36 37 37 37 36 35 36 37 37
18 19 20 21 22 22 23 23 23 24 25 26 26 27 27 27 28 29 29 29 29 30 30 29 28 26 26 28 29 30 31 32 35 37 38 39 38 38 38 37 38 37
20 21 22 22 22 23 23 23 24 25 26 27 27 27 28 29 30 31 31 31 31 31 31 29 28 27 27 28 30 31 33 34 36 37 39 40 40 39 39 38 39 39
20 22 23 23 23 24 24 25 26 27 27 27 28 29 30 31 32 33 33 34 33 33 32 31 29 28 27 29 31 32 33 35 37 37 38 39 40 40 40 39 39 40
20 22 23 23 24 25 26 27 27 28 28 28 29 30 31 32 33 34 34 35 34 34 35 33 31 28 28 29 31 32 33 35 36 37 38 39 39 40 41 40 39 39
20 22 23 24 25 26 27 28 28 28 28 29 30 32 32 32 33 34 34 34 35 35 36 35 33 31 30 30 31 32 34 35 36 37 38 38 39 39 40 41 40 40
19 21 23 24 25 26 27 27 27 28 28 29 31 32 33 33 34 34 34 34 35 35 35 35 34 33 32 32 32 33 34 35 36 36 37 37 37 37 38 40 40 41
19 21 23 24 25 26 27 27 27 28 28 29 31 32 33 33 33 33 33 33 33 33 33 33 32 32 31 31 32 32 34 35 35 36 36 36 36 36 37 38 38 38
20 22 24 25 26 27 27 27 27 28 28 29 30 31 31 31 31 32 32 32 32 31 31 32 31 30 30 31 31 31 32 33 34 35 36 35 35 35 36 36 36 37
21 23 24 26 26 26 27 27 27 27 28 28 29 29 30 30 31 32 32 31 31 31 31 31 30 30 29 30 31 31 31 31 33 34 34 33 33 34 35 35 35 35

ECMWFNIL_925_spd_117.txt.gz
Wind_Speed
8 9 10 10 10 10 10 10 11 11 10 10 11 12 13 15 14 14 15 15 15 15 15 15 15 16 16 14 13 13 14 15 14 13 13 15 17 15 15 16 16 16
9 9 9 8 9 10 11 11 12 11 9 9 12 12 13 13 13 13 14 14 14 13 13 14 14 16 16 14 12 13 15 16 16 14 13 14 16 15 15 16 16 17
10 11 11 11 11 12 12 12 12 9 8 10 12 13 13 13 12 12 12 13 13 13 12 13 15 17 17 15 13 13 16 17 17 15 13 14 16 16 17 17 17 18
12 12 12 13 12 11 12 11 9 8 9 11 12 12 12 11 11 11 11 12 13 14 14 15 17 18 19 19 17 15 17 17 17 16 15 15 16 17 17 17 17 18
12 12 12 11 10 10 10 8 7 8 10 12 12 11 11 10 10 11 13 14 14 15 16 17 18 18 19 20 18 17 17 18 17 16 16 17 17 17 17 17 18 18
10 10 11 10 9 9 7 6 7 9 11 11 10 10 10 10 11 12 14 15 15 17 18 18 18 18 19 18 17 17 17 18 18 18 18 18 18 19 19 19 19 19
9 9 8 7 7 7 6 6 8 9 10 9 8 9 10 11 12 14 15 16 18 19 19 18 18 18 18 17 17 17 17 18 19 18 19 19 19 20 20 20 20 20
9 9 8 5 5 6 7 8 9 9 9 9 10 11 12 13 15 16 17 19 21 22 21 20 20 19 19 19 19 18 18 19 20 20 20 19 19 20 21 21 22 21
9 8 6 6 8 9 9 7 8 10 10 11 12 12 13 16 17 18 17 18 21 23 22 20 20 19 20 21 20 20 21 20 21 22 21 20 20 20 21 21 22 22
8 7 8 9 10 9 9 8 10 12 12 13 13 13 14 15 16 17 16 15 18 20 19 18 18 17 18 19 20 20 20 20 21 22 20 19 19 19 21 22 23 23
8 9 9 9 8 8 10 10 11 12 12 12 12 13 14 14 14 15 16 16 17 17 17 18 17 17 17 18 18 18 17 17 18 19 19 19 20 21 23 23 22 23
9 8 7 7 8 9 11 11 11 12 12 12 12 13 13 13 14 15 14 15 15 15 16 17 16 16 16 16 16 16 17 16 16 17 18 20 22 23 23 25 24 23
8 8 7 8 9 10 11 11 11 11 11 11 12 13 13 13 14 14 14 14 15 15 15 16 16 16 15 16 18 20 20 19 18 20 21 22 24 21 22 29 30 27
8 8 8 9 9 10 10 11 11 11 11 11 12 13 14 13 13 14 14 13 15 18 17 16 20 22 19 19 23 26 26 25 26 28 28 28 29 27 26 30 31 29
8 8 8 9 9 9 10 11 11 11 11 11 12 13 13 13 14 17 18 17 21 25 24 23 27 28 25 24 26 28 29 30 32 33 33 32 33 34 33 33 33 30
8 8 8 9 9 9 10 10 10 11 11 12 13 13 13 16 20 24 26 25 26 28 28 29 30 28 25 25 26 28 29 30 32 33 34 33 32 33 33 34 34 32
9 9 9 9 10 10 10 10 11 12 12 13 13 13 16 23 27 28 28 27 27 28 29 29 28 26 25 25 26 28 30 30 30 31 32 33 31 30 30 30 32 32
13 12 11 11 10 10 11 12 12 13 13 15 17 20 24 28 29 29 29 28 28 28 28 28 27 25 26 26 27 29 31 31 30 29 29 30 30 29 30 29 30 32
16 16 16 15 13 12 12 12 14 17 20 23 26 28 29 30 31 31 31 30 29 29 28 27 26 26 26 27 29 30 32 33 31 29 28 28 28 28 30 31 30 29
17 19 20 20 19 19 19 19 22 25 27 28 29 30 30 31 32 32 33 32 31 31 30 29 27 26 26 28 29 31 32 32 31 30 29 28 28 29 30 32 31 29
18 20 21 22 23 24 25 26 27 28 28 29 30 31 31 32 32 33 33 33 33 32 32 31 29 27 27 28 29 31 31 31 30 29 29 29 29 30 32 34 34 32
20 22 24 24 25 26 27 28 28 29 29 30 31 32 32 32 32 33 32 32 32 33 33 32 29 27 26 26 28 30 29 27 27 26 26 28 28 28 32 37 37 35
21 24 25 25 26 27 28 28 29 29 30 30 32 32 32 32 32 31 31 31 32 32 32 31 29 27 26 25 26 28 26 23 23 23 23 25 27 25 28 34 38 37
23 25 26 26 27 27 28 29 29 30 30 30 31 32 31 31 31 31 31 31 31 31 31 30 29 27 27 26 26 27 26 21 20 23 22 22 24 25 25 29 34 37
24 25 26 27 28 28 29 30 29 29 30 30 30 31 30 29 29 30 31 30 30 29 29 29 28 26 26 26 26 27 27 22 19 22 23 21 21 23 25 27 30 33
24 25 26 28 29 29 30 30 29 29 29 30 30 29 28 28 28 29 30 29 28 28 28 28 27 25 25 25 25 26 28 26 22 21 21 21 20 21 23 24 26 30

ECMWFNIL_925_spd_123.txt.gz
Wind_Speed
8 9 9 8 7 7 6 6 7 7 7 6 6 7 7 7 7 8 8 8 8 9 10 10 10 11 11 11 12 14 14 15 16 16 17 18 18 18 19 19 19 18
9 9 10 9 8 7 7 8 8 8 8 7 7 7 7 7 8 8 9 9 9 10 11 10 11 12 12 12 13 14 14 14 15 15 15 17 17 17 18 18 18 19
10 10 10 9 9 9 9 9 9 8 9 9 8 7 7 8 9 9 9 10 10 11 12 11 11 12 12 13 13 13 13 14 16 15 14 16 17 17 17 18 18 19
11 10 10 9 10 10 10 9 9 9 9 9 8 8 8 9 9 10 10 11 11 12 13 12 12 13 12 13 13 13 13 14 15 16 15 16 17 17 17 18 19 20
11 10 10 10 10 10 10 10 10 10 9 9 9 9 10 10 10 11 11 11 12 12 12 12 12 13 13 13 13 13 14 15 16 17 16 16 18 18 17 18 19 21
10 10 10 11 11 11 10 11 11 10 10 10 10 10 11 11 11 11 11 11 11 11 12 12 13 13 13 13 14 14 15 15 16 17 17 16 18 18 18 18 20 21
10 10 11 11 11 11 11 12 11 10 10 10 11 11 11 11 11 11 11 11 11 11 12 12 12 13 13 13 14 15 15 15 15 17 17 17 17 19 19 19 20 21
11 12 12 12 12 12 12 12 11 10 10 10 11 12 12 11 10 10 10 10 10 11 12 12 12 13 13 14 14 15 15 14 15 16 17 17 18 19 19 20 20 21
13 14 13 13 13 13 12 12 11 11 11 11 11 11 11 11 10 10 9 11 12 12 11 12 12 13 13 14 14 14 15 15 15 15 16 17 17 17 18 19 20 22
15 15 14 14 13 13 12 12 12 12 12 11 11 11 11 10 10 11 10 12 13 12 11 12 12 12 13 14 14 14 14 14 15 15 15 16 16 16 17 18 19 21
16 15 14 14 13 13 12 12 12 12 12 12 11 11 11 10 11 12 11 11 11 11 11 11 11 11 12 13 14 14 14 14 14 14 15 15 15 16 16 17 17 19
16 15 14 14 13 13 13 12 12 12 12 12 11 11 12 12 11 12 12 11 12 13 12 11 11 11 12 14 13 13 14 13 13 13 14 14 15 15 16 16 16 17
15 14 13 13 13 13 12 12 12 12 13 12 12 12 12 12 12 12 13 12 12 13 13 13 13 12 12 14 14 13 13 13 13 13 13 14 15 15 15 15 16 16
15 14 13 13 14 13 13 12 13 13 13 13 13 13 13 13 13 13 13 13 13 14 14 14 15 14 14 15 14 13 13 13 14 14 13 14 14 15 15 15 15 16
16 14 14 14 14 14 13 13 13 13 13 13 13 13 13 13 13 13 13 14 14 14 15 16 17 17 16 15 15 14 13 13 14 14 14 14 14 14 15 16 15 15
15 15 15 15 15 14 14 14 14 14 14 14 14 14 14 13 13 13 13 14 14 15 15 17 18 17 16 15 15 15 13 13 14 14 14 14 14 14 15 16 16 15
16 16 16 16 15 14 14 14 14 14 14 14 15 14 14 13 13 13 13 14 14 15 15 16 17 17 17 17 17 16 15 14 14 15 15 15 15 15 15 16 16 17
16 17 17 16 16 15 14 15 14 14 14 15 15 15 14 13 13 13 14 14 14 15 15 15 16 17 17 17 17 17 16 15 15 16 16 16 16 15 16 17 17 18
17 17 17 16 16 15 15 15 15 15 15 16 16 15 14 14 14 14 14 14 14 15 14 14 16 17 16 17 16 16 16 15 15 16 17 17 17 16 16 17 17 18
17 17 17 17 16 16 16 16 16 16 16 16 16 15 14 14 14 14 14 14 14 13 13 13 13 14 13 14 15 15 15 14 13 15 17 19 19 18 17 17 17 18
18 18 17 17 17 16 16 16 16 16 16 16 16 15 14 14 14 14 14 14 13 12 12 11 10 9 10 11 11 12 13 13 12 13 15 17 19 20 20 19 18 17
18 18 18 18 17 17 16 16 16 16 16 16 16 14 13 13 13 13 13 13 13 12 11 11 8 7 8 9 9 10 11 12 12 12 13 14 16 19 21 22 21 19
18 19 19 18 18 17 16 15 15 16 16 16 15 14 13 13 13 13 13 13 13 12 11 11 9 7 7 9 9 9 10 10 10 11 12 13 14 15 18 21 23 22
18 19 19 19 17 16 15 15 15 16 16 16 15 14 13 13 13 13 14 14 14 13 12 12 11 7 7 8 8 9 11 10 9 9 10 11 12 13 14 17 20 21
18 18 18 18 17 16 15 15 15 16 17 16 15 14 14 13 13 13 14 13 13 13 12 12 12 10 8 7 7 9 11 10 9 9 10 10 11 12 13 14 16 18
18 18 18 17 16 16 15 14 15 16 16 15 14 13 13 13 13 13 13 13 12 11 12 12 12 12 11 9 7 9 11 11 9 9 10 10 10 11 12 12 13 15

ECMWFNIL_925_spd_129.txt.gz
Wind_Speed
21 21 20 19 19 19 18 17 16 15 14 12 10 10 11 10 9 9 12 14 15 15 14 15 14 13 13 14 14 15 17 18 19 21 22 22 23 24 25 25 25 24
21 20 19 19 18 17 16 15 13 13 12 10 10 10 9 8 8 10 13 15 16 15 14 14 13 12 12 12 15 17 18 18 19 20 22 22 22 24 25 26 26 26
19 18 18 17 16 16 15 13 11 10 10 10 10 9 8 9 11 13 15 15 14 13 13 14 14 13 12 12 15 17 17 18 19 19 21 22 22 24 25 26 27 28
18 17 16 15 14 14 13 12 10 9 9 10 11 11 10 12 13 12 13 14 13 12 12 14 15 16 16 15 16 17 16 17 18 18 20 23 22 22 25 26 27 28
18 16 14 14 13 13 13 12 11 9 10 12 13 12 10 11 12 11 12 14 13 13 12 13 14 15 16 17 17 16 16 17 17 17 21 23 22 22 24 26 27 28
18 17 16 16 15 14 14 13 12 12 13 14 12 9 8 9 11 13 14 14 14 14 14 15 14 12 12 15 16 15 16 17 16 18 21 23 23 23 24 26 27 28
20 18 18 18 17 16 15 13 13 14 14 12 9 9 9 11 12 14 15 15 14 14 15 15 14 12 11 12 14 16 17 16 16 19 21 22 23 24 24 25 27 28
21 20 19 18 18 17 15 15 15 15 13 11 11 11 12 13 13 15 15 15 14 13 13 13 14 14 14 14 15 17 17 17 17 19 21 21 22 23 23 23 26 28
21 20 18 17 16 15 15 16 16 14 12 11 11 13 14 15 15 16 16 14 13 14 13 14 16 16 15 15 16 17 18 19 19 19 20 20 21 22 21 21 23 26
20 19 17 16 16 16 16 17 16 13 12 11 12 15 16 15 15 16 15 13 13 14 15 17 18 17 17 16 16 17 20 20 20 20 19 18 20 21 21 21 22 24
20 19 19 17 17 18 18 18 16 13 12 12 15 18 17 16 15 14 13 12 12 14 15 17 18 18 18 18 18 20 20 20 19 19 19 18 18 20 22 23 22 23
21 21 20 19 18 19 18 17 15 13 13 15 16 17 17 15 14 12 12 13 15 16 17 18 18 18 18 19 19 20 20 20 19 19 19 19 18 19 21 23 22 22
23 22 21 19 19 19 18 17 16 15 15 17 16 16 16 15 14 14 15 17 18 19 19 19 19 19 19 19 19 19 19 20 20 20 19 19 19 19 20 21 21 22
23 22 21 20 20 21 19 18 16 16 17 17 16 15 15 15 15 17 18 19 20 20 21 20 20 20 19 18 18 18 18 19 19 19 19 20 20 20 20 20 19 20
24 24 23 23 22 20 17 17 17 19 19 18 17 17 16 16 17 18 20 20 20 21 21 21 20 20 18 17 17 17 18 18 18 18 18 20 21 21 21 19 17 18
26 25 25 24 21 17 17 19 21 22 22 21 20 19 18 17 18 20 21 21 21 22 22 22 21 20 17 16 15 16 16 16 17 17 18 19 20 21 21 20 19 19
27 27 26 24 20 19 21 22 22 23 23 23 21 20 18 18 19 21 21 21 22 22 23 23 22 20 17 16 15 15 15 16 16 17 18 19 20 21 22 22 22 22
30 29 28 24 22 22 22 22 22 23 23 22 21 20 19 18 19 21 21 21 22 22 23 23 22 20 19 19 19 19 19 19 20 20 21 21 21 23 24 25 24 24
29 29 27 25 24 24 24 23 23 23 22 22 21 20 19 19 19 20 20 20 21 22 22 22 21 19 19 19 21 22 23 24 25 25 25 25 25 25 26 27 26 25
26 27 26 26 26 25 25 24 24 23 23 22 21 20 20 19 18 19 19 19 20 21 21 20 19 19 18 18 18 19 22 24 26 27 27 27 27 27 28 28 28 27
25 24 26 28 27 26 25 25 25 24 23 22 22 21 20 19 18 18 18 19 19 19 19 18 17 17 17 17 16 16 18 21 24 25 26 27 27 27 28 28 28 28
25 25 27 29 28 26 26 26 26 25 23 23 23 22 20 19 17 16 16 17 17 17 17 16 15 15 17 18 17 16 16 18 21 23 24 26 26 27 28 28 28 27
26 27 29 29 29 28 27 26 26 25 24 23 23 22 21 20 18 15 15 15 15 15 15 15 14 15 16 17 17 16 16 18 19 20 22 23 24 25 26 27 27 27
29 30 29 29 29 28 28 27 26 25 24 23 24 24 22 21 19 17 15 14 14 14 13 13 14 15 14 16 17 16 16 17 18 19 20 20 22 24 25 25 26 26
32 30 29 29 29 28 28 27 26 26 25 24 23 22 21 20 19 18 17 15 14 14 13 13 14 15 14 16 18 18 17 17 18 19 20 19 19 21 22 23 24 24
31 29 29 29 29 29 28 27 26 26 25 23 22 21 21 20 18 17 16 15 14 15 14 13 14 15 15 16 17 18 17 17 17 18 19 18 17 18 20 21 22 22

ECMWFNIL_925_spd_132.txt.gz
Wind_Speed
25 24 22 20 20 22 23 21 20 18 17 15 14 12 9 12 16 18 17 15 13 13 12 11 11 12 15 17 17 18 20 21 21 20 21 24 25 25 24 24 24 24
25 24 23 23 23 23 22 21 19 18 17 14 11 9 11 17 19 17 15 13 12 13 12 11 12 13 16 18 17 18 20 21 21 20 22 24 24 25 25 25 25 26
25 25 24 24 23 23 23 20 18 17 15 13 12 13 17 19 17 15 14 13 12 13 13 13 14 16 17 17 17 19 21 22 21 19 21 23 23 24 25 25 26 27
25 24 24 23 23 23 21 20 19 17 14 15 18 19 19 18 15 14 13 11 12 14 15 16 17 17 17 16 17 19 21 23 21 19 22 24 23 24 25 25 27 28
24 23 23 22 22 21 20 20 18 15 16 20 20 18 17 16 14 13 12 11 13 14 16 17 17 17 16 16 17 19 21 22 22 21 23 25 25 25 26 27 28 29
22 21 22 21 20 20 18 17 14 15 20 21 18 16 14 12 13 14 14 14 14 14 14 15 16 16 16 16 18 20 21 22 22 23 24 26 26 26 27 28 29 29
21 21 20 19 19 18 15 14 16 20 22 18 15 13 10 11 17 18 17 18 16 14 13 13 14 15 16 16 19 21 21 21 22 23 24 24 25 27 27 27 28 29
21 20 19 19 18 15 15 18 22 22 18 13 11 10 11 18 22 20 19 19 16 15 17 16 16 16 17 17 19 21 21 20 20 22 22 22 23 25 25 25 26 27
21 20 19 19 17 16 20 23 22 17 12 10 12 15 19 23 22 19 19 18 16 16 17 17 18 18 18 18 19 20 20 20 20 21 22 22 22 23 23 24 24 24
22 20 20 19 17 19 24 23 16 12 12 14 19 22 23 22 20 18 18 17 17 17 16 16 17 18 19 19 19 19 19 19 20 21 22 21 21 20 20 21 22 22
23 22 22 19 18 22 24 18 13 14 17 20 22 23 22 20 19 17 17 17 18 18 17 17 18 19 20 20 20 20 19 19 19 21 21 21 20 20 19 19 19 19
24 23 21 18 19 24 22 15 14 18 21 22 21 21 21 19 17 16 16 18 19 19 19 19 19 19 19 19 19 19 18 18 19 20 20 20 19 19 19 18 18 17
24 22 20 19 22 24 19 15 17 21 22 21 20 20 20 18 17 17 17 18 20 20 19 19 19 19 19 19 19 18 18 18 18 19 19 18 16 17 17 17 16 15
23 21 21 22 23 22 17 17 21 22 21 21 19 18 18 17 17 17 18 20 21 20 20 19 18 19 19 19 19 18 17 17 17 17 17 16 15 15 16 17 15 14
23 23 22 23 22 18 16 20 23 22 21 20 18 17 18 18 18 19 21 22 22 21 20 18 17 17 17 16 16 16 16 16 16 15 15 15 14 15 16 17 16 15
23 23 23 23 20 16 19 23 24 23 22 20 18 18 19 20 21 22 22 23 22 21 20 18 17 15 14 13 13 14 15 15 15 14 14 15 16 16 17 18 19 18
23 23 24 21 17 18 23 26 25 23 22 20 19 20 22 23 23 23 23 23 22 21 19 17 16 14 12 12 12 12 13 14 14 15 16 17 18 18 18 18 19 19
23 23 23 18 15 20 26 27 26 24 22 21 21 22 24 24 23 24 23 22 21 20 18 16 15 12 12 12 12 12 13 15 17 18 19 20 20 19 18 18 18 19
24 24 22 16 16 23 28 27 26 24 22 22 22 23 24 24 24 24 24 22 22 21 20 19 17 15 13 14 15 16 17 19 21 22 22 22 21 20 19 17 17 17
25 25 20 16 20 27 28 26 26 25 23 22 22 23 25 25 25 25 24 23 22 22 23 22 21 20 18 19 20 20 22 23 24 24 25 24 23 22 20 19 18 17
27 25 20 18 24 29 28 27 27 25 24 22 22 24 25 25 26 25 25 24 23 23 23 22 22 20 19 19 21 22 22 23 24 25 26 25 25 24 22 22 20 20
28 25 20 22 28 30 28 28 27 25 24 23 22 24 25 25 25 25 25 25 23 22 22 22 20 18 17 17 19 20 22 23 24 25 25 25 24 23 23 22 21 20
27 24 22 26 30 30 28 28 27 25 25 23 23 24 25 25 24 24 24 24 23 22 21 21 20 18 17 16 16 17 20 22 24 24 25 24 23 22 22 21 20 20
24 23 24 29 31 29 29 28 27 26 25 23 24 25 25 25 24 24 23 22 21 20 19 20 20 19 18 17 15 15 17 20 22 23 24 23 23 22 21 21 21 20
23 23 27 30 30 29 29 28 28 27 25 24 24 24 24 24 24 24 22 21 20 18 17 18 20 20 19 18 16 15 15 17 21 23 23 22 22 22 22 21 21 20
24 26 29 31 30 30 29 29 28 27 26 25 24 24 24 24 23 24 23 20 19 17 16 15 17 20 21 19 17 15 13 15 19 21 22 22 21 21 21 21 20 20

ECMWFNIL_925_spd_135.txt.gz
Wind_Speed
27 28 27 24 23 22 21 21 20 17 15 13 10 9 13 16 16 15 14 13 12 12 13 12 12 12 13 14 13 15 15 16 17 17 18 19 19 19 19 19 19 18
27 27 25 23 23 22 21 21 19 17 15 12 11 15 18 18 15 14 14 14 13 13 14 14 13 13 14 14 14 15 15 16 18 18 18 20 21 21 22 21 21 20
27 26 25 24 24 23 22 21 19 17 14 12 16 20 19 16 15 15 14 13 14 15 15 14 14 14 14 15 15 15 15 16 18 18 19 21 22 22 23 22 22 22
27 26 25 24 24 24 23 22 19 16 13 15 20 21 17 16 16 15 14 14 16 17 16 15 15 14 14 15 15 16 16 17 18 18 21 23 23 23 24 23 23 22
27 25 24 24 24 25 24 22 19 16 16 20 22 20 17 16 16 16 16 16 18 18 16 15 15 14 14 15 16 16 17 18 18 19 22 24 24 24 24 24 24 23
26 25 24 24 25 25 24 21 18 18 20 24 23 19 17 16 16 17 17 18 19 17 15 16 16 15 15 16 17 17 18 19 20 21 24 25 25 25 25 25 25 25
25 25 25 25 25 24 22 19 18 21 24 24 22 19 17 16 16 17 17 19 19 16 15 16 16 16 15 15 17 18 18 19 20 22 24 25 26 26 26 26 27 26
26 26 25 25 24 23 21 19 20 23 23 22 20 18 16 17 17 17 17 17 17 15 15 17 16 16 15 14 17 18 18 19 20 22 24 25 25 26 26 26 27 26
26 25 25 24 23 22 20 19 22 24 21 19 18 16 17 19 18 18 17 16 15 15 16 18 17 16 15 15 16 17 18 19 20 21 22 23 24 24 24 25 25 25
26 25 24 23 21 19 19 20 23 22 19 17 17 17 20 22 20 19 17 16 16 17 18 19 18 17 16 16 15 16 17 19 20 21 21 21 21 21 21 22 23 23
25 24 24 22 20 19 20 21 21 19 17 17 18 21 24 24 21 20 18 17 17 18 19 19 18 17 16 16 16 15 16 17 19 20 19 19 18 18 19 20 20 20
26 25 23 20 19 20 20 18 16 16 17 19 21 24 26 24 22 21 19 18 18 18 19 19 18 17 16 16 16 14 14 16 18 18 18 17 17 16 16 17 18 18
26 25 22 20 20 20 17 14 15 18 21 24 25 25 25 23 22 21 19 18 18 18 19 19 18 17 16 16 15 13 13 14 16 17 17 15 15 15 14 14 15 16
26 25 21 19 20 19 14 15 19 22 24 26 25 25 23 22 21 21 21 20 19 19 20 19 18 17 16 15 14 12 12 13 15 16 15 14 13 13 13 13 12 12
26 25 20 17 19 17 15 19 23 24 25 25 24 23 22 21 21 21 21 21 20 20 20 19 18 17 15 13 12 11 11 12 14 15 14 13 12 12 13 12 11 11
26 23 18 18 19 18 18 22 24 24 24 24 22 22 21 21 21 22 22 22 21 21 20 19 17 16 14 11 10 10 11 12 13 14 14 12 12 13 13 13 12 11
25 22 19 19 20 19 21 24 24 24 23 22 21 21 21 21 22 22 22 22 22 21 20 18 17 15 13 11 9 9 9 10 12 14 14 13 13 14 15 14 14 13
24 21 20 19 20 21 24 25 24 24 23 21 21 21 21 22 23 23 23 22 21 20 18 17 16 14 12 10 9 8 9 10 13 15 15 14 14 14 15 14 14 13
24 21 20 20 21 24 27 26 25 24 23 22 22 22 22 23 23 23 23 22 20 19 17 16 15 13 11 10 9 9 10 12 15 16 16 14 14 13 13 13 13 12
24 22 20 21 24 27 28 27 26 24 23 22 23 23 24 24 24 24 22 20 18 17 16 16 15 13 11 11 11 12 14 15 16 16 16 14 13 12 11 11 12 11
25 23 21 22 26 28 29 28 26 25 24 24 24 24 24 24 24 23 22 19 18 17 18 17 15 14 14 14 16 17 17 18 18 18 17 15 14 13 12 11 11 11
27 25 23 24 28 29 29 28 27 26 25 25 25 25 24 24 24 23 22 21 20 19 20 20 18 17 17 19 19 19 20 20 20 20 19 18 16 15 14 13 12 12
30 28 26 27 30 30 30 30 28 27 26 26 26 26 25 25 24 24 22 22 22 21 22 23 21 19 19 19 20 20 20 21 21 21 20 18 17 16 15 14 13 12
32 32 30 30 32 31 31 31 29 28 27 26 26 27 26 25 24 24 23 22 21 21 21 23 23 20 18 19 19 19 19 21 21 21 20 18 17 16 14 13 13 12
31 31 31 31 32 32 32 31 29 28 27 26 26 28 27 26 24 24 23 22 20 20 20 21 22 21 18 18 18 17 18 19 20 20 20 18 16 15 14 13 12 11
28 28 28 29 30 31 31 30 29 28 27 27 27 27 27 26 24 23 23 22 21 20 19 20 21 21 19 17 16 16 17 18 19 20 20 18 16 15 15 14 12 11

ECMWFNIL_925_spd_138.txt.gz
Wind_Speed
19 23 26 27 25 24 22 20 18 16 14 12 11 11 11 11 12 12 11 10 10 10 10 10 11 11 11 10 10 11 12 12 13 13 12 14 14 14 14 15 15 16
21 25 27 27 25 23 22 20 17 15 14 12 10 11 13 14 13 13 12 12 12 12 12 12 12 12 11 11 10 11 12 13 14 13 13 15 15 15 16 16 16 17
23 26 27 27 26 24 22 19 17 15 14 12 11 14 16 15 14 14 13 13 13 13 13 12 12 12 12 11 10 11 13 13 14 14 14 16 15 15 16 16 17 19
24 25 26 27 26 23 22 20 18 16 14 14 15 16 17 16 15 15 14 14 14 15 13 12 12 12 12 10 10 12 13 14 15 14 15 17 16 16 17 17 19 21
24 26 27 27 25 23 22 21 19 17 15 16 18 18 17 16 16 16 16 15 16 15 14 13 12 13 12 11 11 13 14 15 16 15 16 18 17 17 18 19 21 23
27 28 28 27 24 23 23 21 19 17 18 19 19 18 17 17 16 16 17 17 16 15 14 13 13 13 12 11 12 14 15 16 17 16 18 20 20 20 21 22 24 26
29 28 27 25 24 23 23 21 19 18 20 21 20 18 17 17 17 17 17 17 16 15 14 13 13 13 12 11 13 15 16 17 17 18 20 21 22 23 24 25 26 26
28 27 25 24 24 24 23 21 19 20 22 23 21 18 17 17 18 18 17 17 16 16 15 14 13 13 12 11 13 15 17 17 17 19 21 23 23 24 24 25 25 25
26 25 24 24 25 25 23 21 20 22 24 23 21 18 17 18 18 18 18 16 17 16 15 14 13 13 12 11 12 14 17 18 18 19 22 23 24 24 24 24 24 24
25 25 25 25 26 25 23 22 22 24 25 24 21 19 18 18 18 18 18 17 17 17 16 15 14 13 13 12 12 14 16 18 18 20 22 23 24 23 22 22 22 22
25 25 26 27 26 25 23 22 23 24 25 24 22 20 18 19 19 18 18 17 18 18 17 16 14 13 12 12 12 13 16 17 18 20 21 22 22 22 21 21 20 20
26 26 27 27 26 24 22 22 23 24 24 23 21 20 20 20 19 18 18 18 18 19 18 16 15 13 12 12 12 14 16 17 17 19 20 21 21 21 20 19 19 18
27 27 27 26 25 23 21 21 22 23 22 22 20 20 22 22 20 19 18 18 19 19 18 16 15 14 12 11 12 13 16 17 17 17 18 19 19 19 18 17 17 16
27 27 26 25 23 21 20 20 22 22 21 21 21 22 23 23 21 20 19 19 19 19 18 17 16 14 12 12 12 14 15 16 16 16 16 17 17 16 15 15 14 14
28 26 25 23 21 20 20 20 21 21 21 22 23 24 25 24 22 21 19 20 20 20 19 18 16 15 13 11 11 13 16 16 16 15 15 15 15 14 13 12 12 11
28 26 24 22 21 20 20 20 21 21 22 24 25 26 25 24 22 21 20 20 21 21 20 19 17 14 13 11 10 12 15 17 16 14 14 13 13 13 12 11 11 10
28 26 24 23 22 21 20 21 22 23 24 25 26 26 25 24 23 22 21 21 21 21 21 19 17 15 13 12 10 10 13 16 16 14 13 13 13 13 12 11 11 10
28 27 25 24 23 22 21 22 23 24 25 26 26 25 24 24 23 23 22 22 22 22 21 19 17 15 14 12 11 10 12 15 16 14 13 13 13 12 12 12 11 10
29 28 26 24 23 23 22 24 25 25 26 26 25 24 24 24 24 23 23 22 22 22 21 19 17 16 14 12 11 10 11 15 16 15 13 14 13 13 12 11 10 9
30 29 26 24 24 25 25 26 27 26 25 25 24 24 24 24 24 24 23 23 22 21 20 19 17 16 14 12 11 11 12 16 18 16 15 14 14 13 12 11 9 8
30 29 26 25 26 27 28 28 27 27 26 25 24 24 24 24 24 24 23 23 22 21 20 19 17 16 14 12 12 13 15 18 18 17 16 15 13 12 11 10 9 7
30 28 26 26 27 27 28 28 28 27 26 25 24 24 24 24 24 24 24 23 22 20 19 18 17 15 14 12 13 15 17 19 18 17 16 14 13 11 10 9 8 7
30 28 26 26 24 23 22 23 25 25 25 25 24 24 24 25 25 24 23 22 21 19 19 19 18 15 14 14 16 18 19 19 19 17 16 15 14 12 11 10 9 8
29 28 27 26 25 24 23 23 24 24 24 24 24 24 25 25 24 24 22 20 19 19 19 19 18 17 16 17 18 19 19 19 19 19 18 17 16 15 12 11 10 9
29 29 29 29 31 32 32 29 28 27 25 25 24 24 25 25 24 23 21 20 19 19 19 19 19 19 19 18 19 19 19 19 19 20 20 18 17 15 13 11 10 9
30 30 30 30 31 32 31 31 30 28 27 26 25 24 25 25 24 23 22 21 20 19 19 19 20 21 20 19 19 19 18 18 18 19 19 18 16 15 13 12 10 8

ECMWFNIL_925_spd_141.txt.gz
Wind_Speed
22 23 24 26 26 25 24 23 20 19 17 15 13 11 10 9 11 12 10 9 7 7 8 7 7 6 7 8 8 10 12 13 14 14 13 14 14 14 15 15 15 15
22 23 24 25 25 24 24 22 20 18 16 14 12 11 11 12 13 12 10 9 9 9 9 9 8 7 7 8 9 11 13 14 15 15 14 15 15 15 16 16 16 15
23 23 24 24 25 25 24 22 19 17 15 13 12 11 12 14 14 12 11 10 10 11 10 10 8 7 8 9 10 12 14 15 15 15 14 15 15 16 16 16 16 16
21 23 24 24 25 26 25 22 20 18 16 13 13 13 15 16 15 13 12 12 11 12 11 10 9 8 9 9 11 13 14 15 15 14 14 16 16 16 16 16 16 16
20 24 25 24 25 27 25 23 21 19 16 14 15 16 17 17 16 14 14 13 13 13 12 11 9 9 9 10 11 14 15 16 15 14 15 17 17 17 17 16 17 17
21 24 26 25 26 27 25 23 21 19 17 16 17 18 18 17 16 15 15 14 14 13 12 11 10 10 10 11 13 15 16 16 16 15 17 18 17 18 18 17 18 17
23 24 24 26 28 27 25 24 21 19 18 17 19 19 18 18 16 16 16 15 15 14 13 12 11 11 11 12 14 16 16 17 16 17 18 18 17 18 19 18 17 16
24 23 23 26 28 27 26 24 22 20 19 18 19 19 19 18 17 17 17 16 15 14 13 12 12 12 12 13 15 16 17 18 18 18 19 18 16 17 17 17 16 15
23 23 23 26 29 28 26 25 23 22 20 20 20 20 20 18 18 18 18 17 16 15 14 13 13 13 13 14 15 16 18 19 19 19 19 17 16 16 15 15 16 15
23 25 25 28 29 28 27 26 25 24 22 21 21 21 20 19 18 19 19 18 17 15 14 14 14 14 13 14 15 16 18 19 19 20 19 16 15 15 15 14 14 14
21 24 27 30 29 28 29 27 26 25 23 22 22 21 21 21 21 20 20 19 18 16 15 14 14 14 14 14 15 16 18 19 20 20 19 17 16 16 15 14 14 14
20 24 28 30 30 30 30 28 27 25 24 24 23 22 23 23 22 22 21 19 18 17 16 15 14 14 14 15 16 17 18 19 20 20 20 19 17 16 15 14 13 13
20 24 29 30 30 31 30 28 27 26 26 26 24 23 24 24 23 23 22 21 19 18 16 15 15 15 14 14 16 17 18 19 20 21 20 19 18 17 15 14 12 12
20 25 31 31 31 31 29 27 27 27 27 27 26 25 25 24 24 24 23 22 20 19 17 16 15 15 14 15 16 17 19 19 20 20 19 19 18 16 15 13 12 11
25 29 31 31 31 31 29 28 27 27 28 28 27 25 25 24 24 23 23 23 22 20 19 17 16 15 13 14 15 18 19 19 20 19 18 18 16 15 14 13 11 11
30 32 32 32 31 30 29 28 27 27 28 28 27 26 25 25 24 23 23 23 23 22 20 18 16 14 12 12 13 16 19 19 19 18 17 16 15 14 13 12 11 11
33 33 33 33 31 30 29 28 27 27 28 28 28 27 26 26 25 24 23 23 23 23 21 19 17 14 13 12 11 14 18 19 18 18 17 15 14 13 12 11 11 11
35 34 34 32 31 29 28 26 26 27 27 28 28 28 28 27 26 24 24 23 23 23 22 20 18 15 14 13 12 12 16 18 18 17 16 15 14 12 12 12 11 10
36 35 33 32 30 28 26 25 25 26 27 28 29 28 28 28 26 25 24 23 24 24 23 21 19 17 15 14 12 12 14 17 17 16 16 16 14 13 12 11 11 10
36 35 33 32 30 28 26 25 25 27 27 28 28 28 29 28 26 25 24 24 24 23 23 21 20 19 17 15 13 12 13 16 17 15 16 16 15 13 12 11 11 11
34 34 33 32 30 28 27 26 26 27 28 28 28 28 28 27 26 25 24 24 24 23 23 22 21 19 18 15 14 12 13 16 17 15 15 15 15 14 13 12 10 10
34 34 33 32 31 29 27 27 27 28 28 29 29 29 28 27 26 25 25 24 24 23 23 22 21 20 18 16 14 13 14 17 17 16 15 16 15 14 14 12 11 10
35 35 34 33 31 29 28 28 29 29 29 29 29 28 28 27 26 25 25 24 24 24 23 22 21 20 17 16 14 14 16 19 19 17 17 16 15 14 14 12 11 10
37 35 34 33 32 30 29 29 30 30 29 28 28 27 27 26 26 25 24 24 24 24 23 22 21 20 18 16 15 15 17 20 19 17 17 17 15 14 13 12 11 11
38 36 34 33 32 29 29 30 31 30 29 28 26 26 26 26 25 24 24 24 24 23 22 21 20 20 18 16 16 16 18 20 18 16 17 17 15 14 14 13 12 11
38 38 35 33 31 28 29 31 31 31 29 28 27 25 25 25 24 23 24 24 23 22 21 20 20 20 19 17 17 17 19 19 18 16 16 17 15 14 14 13 12 11

ECMWFNIL_925_spd_144.txt.gz
Wind_Speed
21 20 19 19 17 17 19 18 17 17 15 13 13 12 13 12 12 12 11 10 9 9 9 9 8 9 9 8 8 8 9 10 10 10 10 11 11 11 10 9 8 8
23 21 20 19 17 17 19 18 17 17 15 13 13 13 13 13 13 13 11 11 10 10 10 9 9 9 8 8 8 9 9 10 10 9 10 11 11 10 10 9 9 8
25 24 21 18 18 18 18 18 17 16 15 14 13 13 13 13 14 13 12 11 11 11 10 9 9 9 9 9 9 9 9 9 9 9 10 11 10 10 9 9 9 8
26 25 21 17 18 20 19 18 17 16 15 14 13 13 13 14 15 14 13 12 11 11 10 10 10 9 9 9 9 10 9 9 9 9 10 11 10 10 9 9 9 9
24 22 19 16 19 20 19 19 18 17 16 14 14 13 14 16 16 14 14 13 12 12 10 10 10 10 10 10 10 10 9 9 9 9 11 11 10 9 9 9 9 9
22 21 17 16 19 20 19 19 19 17 16 15 14 14 15 16 15 14 14 13 13 12 11 11 10 10 10 10 10 9 9 9 10 10 11 11 10 10 9 9 9 10
21 21 19 18 21 21 20 21 19 18 17 15 15 15 16 16 15 15 15 14 13 12 11 11 10 10 10 10 10 10 10 10 10 11 12 11 11 11 10 10 10 11
21 22 21 20 21 21 22 22 20 18 18 16 15 15 16 16 15 15 15 14 14 12 12 11 11 11 10 10 11 11 10 10 11 12 12 11 11 11 10 10 10 11
22 21 21 21 22 22 23 22 20 20 19 17 16 16 16 16 15 16 15 15 14 13 12 11 11 11 10 11 11 11 11 11 11 12 12 11 11 11 11 10 10 10
22 20 20 22 23 23 22 22 22 21 20 18 18 16 16 16 15 15 16 15 14 13 13 11 11 11 11 11 11 11 11 12 12 12 11 11 11 11 11 10 10 10
22 20 23 25 24 23 23 23 23 21 19 19 19 17 17 17 16 16 15 15 14 14 13 12 12 12 12 12 11 11 12 12 12 12 11 11 11 11 10 9 9 10
22 21 24 26 24 23 23 24 24 22 20 19 19 18 18 17 17 16 15 15 14 14 13 12 12 12 12 12 12 12 12 12 13 12 12 12 11 11 10 9 9 10
20 20 23 24 22 22 23 24 25 24 21 20 20 20 19 18 17 16 15 15 15 14 14 13 12 12 12 12 13 13 13 13 13 13 12 12 11 11 10 10 10 10
20 21 23 22 20 22 23 24 26 24 21 21 21 20 19 18 17 16 15 15 14 14 13 13 13 12 12 13 13 13 13 13 13 13 13 12 12 11 10 10 10 10
21 22 23 21 21 23 23 24 26 25 24 23 21 19 19 18 17 16 16 15 14 14 14 13 13 12 12 13 14 14 14 14 13 13 13 13 12 11 10 10 10 10
22 23 23 23 23 23 24 28 30 28 26 25 23 21 19 18 17 17 16 15 15 14 14 13 12 12 14 15 15 15 14 14 13 13 13 13 12 11 11 10 10 10
23 22 23 24 24 25 28 31 31 29 27 25 24 24 21 19 18 18 16 16 15 15 15 14 12 13 15 17 17 16 14 13 13 13 12 12 12 11 11 11 11 11
21 21 22 23 24 27 30 32 31 29 28 26 25 26 24 20 19 19 18 17 16 16 15 14 13 15 16 16 18 18 16 13 13 13 12 12 11 11 11 11 11 11
20 21 22 21 25 30 32 32 30 27 26 26 26 27 26 22 19 19 19 18 17 16 16 14 15 17 17 15 17 19 18 14 12 12 12 11 11 11 11 11 11 11
22 26 26 25 28 32 32 30 27 24 23 24 25 28 27 22 19 19 19 18 17 17 15 14 17 19 18 16 16 19 19 15 11 12 12 10 11 11 10 11 11 10
24 27 29 31 32 32 32 29 24 21 20 21 24 28 27 22 19 19 18 17 17 17 15 14 18 20 19 17 16 18 19 14 10 11 12 10 11 11 10 10 10 10
28 27 28 33 34 32 32 29 23 21 22 23 25 26 24 20 18 17 17 17 16 17 16 15 19 21 20 18 16 17 19 15 11 12 12 11 11 11 10 10 10 9
33 31 30 33 35 35 32 27 22 22 24 25 24 21 19 18 18 17 17 17 17 18 16 16 21 23 21 19 17 18 19 15 11 12 12 11 12 12 11 10 10 10
35 35 34 34 36 36 31 24 21 23 25 24 23 21 20 20 19 17 16 16 17 18 16 17 22 24 22 20 18 18 18 14 12 13 12 12 12 12 11 10 11 12
34 36 38 37 37 35 29 23 24 26 27 25 23 22 21 21 20 17 15 15 15 17 17 18 22 24 23 20 19 19 18 14 12 13 12 12 12 12 11 10 11 13
33 38 42 40 37 34 28 24 26 27 28 27 25 22 22 23 21 16 15 14 14 17 18 17 20 24 24 21 19 19 19 15 12 12 13 12 12 12 11 10 10 12